Year,Month,Day,Hour,Minute,Value (Times are PST for temperature in C)
2016,11,21,00,00,9.90
2016,11,21,00,01,9.90
2016,11,21,00,02,9.90
2016,11,21,00,03,9.90
2016,11,21,00,04,9.90
2016,11,21,00,05,9.90
2016,11,21,00,06,9.90
2016,11,21,00,07,9.90
2016,11,21,00,08,9.90
2016,11,21,00,09,9.90
2016,11,21,00,10,9.90
2016,11,21,00,11,9.90
2016,11,21,00,12,9.90
2016,11,21,00,13,9.90
2016,11,21,00,14,9.90
2016,11,21,00,15,9.90
2016,11,21,00,16,9.90
2016,11,21,00,17,9.90
2016,11,21,00,18,9.90
2016,11,21,00,19,9.90
2016,11,21,00,20,9.90
2016,11,21,00,21,9.90
2016,11,21,00,22,9.90
2016,11,21,00,23,9.90
2016,11,21,00,24,9.90
2016,11,21,00,25,9.90
2016,11,21,00,26,9.90
2016,11,21,00,27,9.90
2016,11,21,00,28,9.90
2016,11,21,00,29,9.90
2016,11,21,00,30,9.90
2016,11,21,00,31,9.90
2016,11,21,00,32,9.90
2016,11,21,00,33,9.90
2016,11,21,00,34,9.90
2016,11,21,00,35,9.90
2016,11,21,00,36,9.90
2016,11,21,00,37,9.90
2016,11,21,00,38,9.90
2016,11,21,00,39,9.90
2016,11,21,00,40,9.90
2016,11,21,00,41,9.90
2016,11,21,00,42,9.90
2016,11,21,00,43,9.90
2016,11,21,00,44,9.90
2016,11,21,00,45,9.80
2016,11,21,00,46,9.80
2016,11,21,00,47,9.80
2016,11,21,00,48,9.80
2016,11,21,00,49,9.80
2016,11,21,00,50,9.80
2016,11,21,00,51,9.80
2016,11,21,00,52,9.80
2016,11,21,00,53,9.80
2016,11,21,00,54,9.80
2016,11,21,00,55,9.80
2016,11,21,00,56,9.80
2016,11,21,00,57,9.80
2016,11,21,00,58,9.80
2016,11,21,00,59,9.80
2016,11,21,01,00,9.90
2016,11,21,01,01,9.80
2016,11,21,01,02,9.80
2016,11,21,01,03,9.80
2016,11,21,01,04,9.80
2016,11,21,01,05,9.80
2016,11,21,01,06,9.80
2016,11,21,01,07,9.80
2016,11,21,01,08,9.80
2016,11,21,01,09,9.80
2016,11,21,01,10,9.70
2016,11,21,01,11,9.70
2016,11,21,01,12,9.70
2016,11,21,01,13,9.80
2016,11,21,01,14,9.80
2016,11,21,01,15,9.70
2016,11,21,01,16,9.70
2016,11,21,01,17,9.70
2016,11,21,01,18,9.80
2016,11,21,01,19,9.80
2016,11,21,01,20,9.80
2016,11,21,01,21,9.70
2016,11,21,01,22,9.70
2016,11,21,01,23,9.70
2016,11,21,01,24,9.70
2016,11,21,01,25,9.70
2016,11,21,01,26,9.80
2016,11,21,01,27,9.80
2016,11,21,01,28,9.80
2016,11,21,01,29,9.90
2016,11,21,01,30,9.90
2016,11,21,01,31,9.90
2016,11,21,01,32,9.90
2016,11,21,01,33,9.80
2016,11,21,01,34,9.90
2016,11,21,01,35,9.80
2016,11,21,01,36,9.80
2016,11,21,01,37,9.80
2016,11,21,01,38,9.80
2016,11,21,01,39,9.80
2016,11,21,01,40,9.80
2016,11,21,01,41,9.80
2016,11,21,01,42,9.70
2016,11,21,01,43,9.70
2016,11,21,01,44,9.70
2016,11,21,01,45,9.70
2016,11,21,01,46,9.60
2016,11,21,01,47,9.60
2016,11,21,01,48,9.60
2016,11,21,01,49,9.60
2016,11,21,01,50,9.60
2016,11,21,01,51,9.60
2016,11,21,01,52,9.60
2016,11,21,01,53,9.60
2016,11,21,01,54,9.60
2016,11,21,01,55,9.60
2016,11,21,01,56,9.60
2016,11,21,01,57,9.60
2016,11,21,01,58,9.60
2016,11,21,01,59,9.60
2016,11,21,02,00,9.60
2016,11,21,02,01,9.60
2016,11,21,02,02,9.60
2016,11,21,02,03,9.60
2016,11,21,02,04,9.60
2016,11,21,02,05,9.60
2016,11,21,02,06,9.60
2016,11,21,02,07,9.60
2016,11,21,02,08,9.60
2016,11,21,02,09,9.60
2016,11,21,02,10,9.60
2016,11,21,02,11,9.50
2016,11,21,02,12,9.50
2016,11,21,02,13,9.50
2016,11,21,02,14,9.50
2016,11,21,02,15,9.50
2016,11,21,02,16,9.60
2016,11,21,02,17,9.60
2016,11,21,02,18,9.60
2016,11,21,02,19,9.60
2016,11,21,02,20,9.60
2016,11,21,02,21,9.60
2016,11,21,02,22,9.60
2016,11,21,02,23,9.60
2016,11,21,02,24,9.60
2016,11,21,02,25,9.60
2016,11,21,02,26,9.60
2016,11,21,02,27,9.60
2016,11,21,02,28,9.60
2016,11,21,02,29,9.60
2016,11,21,02,30,9.60
2016,11,21,02,31,9.60
2016,11,21,02,32,9.60
2016,11,21,02,33,9.60
2016,11,21,02,34,9.60
2016,11,21,02,35,9.60
2016,11,21,02,36,9.60
2016,11,21,02,37,9.60
2016,11,21,02,38,9.50
2016,11,21,02,39,9.50
2016,11,21,02,40,9.40
2016,11,21,02,41,9.40
2016,11,21,02,42,9.40
2016,11,21,02,43,9.40
2016,11,21,02,44,9.40
2016,11,21,02,45,9.30
2016,11,21,02,46,9.30
2016,11,21,02,47,9.30
2016,11,21,02,48,9.30
2016,11,21,02,49,9.30
2016,11,21,02,50,9.30
2016,11,21,02,51,9.30
2016,11,21,02,52,9.30
2016,11,21,02,53,9.30
2016,11,21,02,54,9.30
2016,11,21,02,55,9.30
2016,11,21,02,56,9.30
2016,11,21,02,57,9.30
2016,11,21,02,58,9.30
2016,11,21,02,59,9.30
2016,11,21,03,00,9.40
2016,11,21,03,01,9.40
2016,11,21,03,02,9.40
2016,11,21,03,03,9.30
2016,11,21,03,04,9.30
2016,11,21,03,05,9.30
2016,11,21,03,06,9.30
2016,11,21,03,07,9.30
2016,11,21,03,08,9.30
2016,11,21,03,09,9.30
2016,11,21,03,10,9.30
2016,11,21,03,11,9.30
2016,11,21,03,12,9.30
2016,11,21,03,13,9.30
2016,11,21,03,14,9.30
2016,11,21,03,15,9.30
2016,11,21,03,16,9.30
2016,11,21,03,17,9.30
2016,11,21,03,18,9.30
2016,11,21,03,19,9.30
2016,11,21,03,20,9.20
2016,11,21,03,21,9.30
2016,11,21,03,22,9.30
2016,11,21,03,23,9.30
2016,11,21,03,24,9.30
2016,11,21,03,25,9.30
2016,11,21,03,26,9.30
2016,11,21,03,27,9.30
2016,11,21,03,28,9.30
2016,11,21,03,29,9.30
2016,11,21,03,30,9.30
2016,11,21,03,31,9.30
2016,11,21,03,32,9.30
2016,11,21,03,33,9.30
2016,11,21,03,34,9.30
2016,11,21,03,35,9.20
2016,11,21,03,36,9.20
2016,11,21,03,37,9.20
2016,11,21,03,38,9.20
2016,11,21,03,39,9.20
2016,11,21,03,40,9.20
2016,11,21,03,41,9.20
2016,11,21,03,42,9.20
2016,11,21,03,43,9.20
2016,11,21,03,44,9.20
2016,11,21,03,45,9.20
2016,11,21,03,46,9.20
2016,11,21,03,47,9.20
2016,11,21,03,48,9.20
2016,11,21,03,49,9.30
2016,11,21,03,50,9.30
2016,11,21,03,51,9.30
2016,11,21,03,52,9.30
2016,11,21,03,53,9.30
2016,11,21,03,54,9.30
2016,11,21,03,55,9.30
2016,11,21,03,56,9.30
2016,11,21,03,57,9.30
2016,11,21,03,58,9.30
2016,11,21,03,59,9.30
2016,11,21,04,00,9.30
2016,11,21,04,01,9.30
2016,11,21,04,02,9.30
2016,11,21,04,03,9.30
2016,11,21,04,04,9.30
2016,11,21,04,05,9.20
2016,11,21,04,06,9.20
2016,11,21,04,07,9.20
2016,11,21,04,08,9.20
2016,11,21,04,09,9.20
2016,11,21,04,10,9.20
2016,11,21,04,11,9.20
2016,11,21,04,12,9.20
2016,11,21,04,13,9.20
2016,11,21,04,14,9.20
2016,11,21,04,15,9.20
2016,11,21,04,16,9.20
2016,11,21,04,17,9.20
2016,11,21,04,18,9.20
2016,11,21,04,19,9.10
2016,11,21,04,20,9.10
2016,11,21,04,21,9.10
2016,11,21,04,22,9.10
2016,11,21,04,23,9.10
2016,11,21,04,24,9.10
2016,11,21,04,25,9.10
2016,11,21,04,26,9.10
2016,11,21,04,27,9.10
2016,11,21,04,28,9.10
2016,11,21,04,29,9.00
2016,11,21,04,30,9.00
2016,11,21,04,31,9.00
2016,11,21,04,32,9.00
2016,11,21,04,33,9.00
2016,11,21,04,34,8.90
2016,11,21,04,35,8.90
2016,11,21,04,36,8.90
2016,11,21,04,37,8.90
2016,11,21,04,38,8.90
2016,11,21,04,39,8.90
2016,11,21,04,40,8.90
2016,11,21,04,41,8.90
2016,11,21,04,42,8.90
2016,11,21,04,43,8.90
2016,11,21,04,44,8.90
2016,11,21,04,45,8.90
2016,11,21,04,46,8.90
2016,11,21,04,47,8.90
2016,11,21,04,48,8.90
2016,11,21,04,49,8.90
2016,11,21,04,50,8.90
2016,11,21,04,51,8.90
2016,11,21,04,52,8.90
2016,11,21,04,53,8.90
2016,11,21,04,54,8.90
2016,11,21,04,55,8.90
2016,11,21,04,56,8.90
2016,11,21,04,57,8.90
2016,11,21,04,58,8.90
2016,11,21,04,59,8.90
2016,11,21,05,00,8.90
2016,11,21,05,01,8.80
2016,11,21,05,02,8.80
2016,11,21,05,03,8.80
2016,11,21,05,04,8.80
2016,11,21,05,05,8.80
2016,11,21,05,06,8.80
2016,11,21,05,07,8.80
2016,11,21,05,08,8.80
2016,11,21,05,09,8.80
2016,11,21,05,10,8.80
2016,11,21,05,11,8.80
2016,11,21,05,12,8.80
2016,11,21,05,13,8.70
2016,11,21,05,14,8.70
2016,11,21,05,15,8.70
2016,11,21,05,16,8.70
2016,11,21,05,17,8.70
2016,11,21,05,18,8.70
2016,11,21,05,19,8.70
2016,11,21,05,20,8.70
2016,11,21,05,21,8.70
2016,11,21,05,22,8.70
2016,11,21,05,23,8.70
2016,11,21,05,24,8.60
2016,11,21,05,25,8.60
2016,11,21,05,26,8.60
2016,11,21,05,27,8.60
2016,11,21,05,28,8.60
2016,11,21,05,29,8.60
2016,11,21,05,30,8.60
2016,11,21,05,31,8.60
2016,11,21,05,32,8.60
2016,11,21,05,33,8.50
2016,11,21,05,34,8.50
2016,11,21,05,35,8.50
2016,11,21,05,36,8.50
2016,11,21,05,37,8.50
2016,11,21,05,38,8.50
2016,11,21,05,39,8.50
2016,11,21,05,40,8.50
2016,11,21,05,41,8.50
2016,11,21,05,42,8.50
2016,11,21,05,43,8.50
2016,11,21,05,44,8.50
2016,11,21,05,45,8.50
2016,11,21,05,46,8.50
2016,11,21,05,47,8.50
2016,11,21,05,48,8.50
2016,11,21,05,49,8.50
2016,11,21,05,50,8.50
2016,11,21,05,51,8.50
2016,11,21,05,52,8.50
2016,11,21,05,53,8.40
2016,11,21,05,54,8.40
2016,11,21,05,55,8.40
2016,11,21,05,56,8.40
2016,11,21,05,57,8.40
2016,11,21,05,58,8.40
2016,11,21,05,59,8.40
2016,11,21,06,00,8.40
2016,11,21,06,01,8.40
2016,11,21,06,02,8.40
2016,11,21,06,03,8.40
2016,11,21,06,04,8.40
2016,11,21,06,05,8.40
2016,11,21,06,06,8.40
2016,11,21,06,07,8.40
2016,11,21,06,08,8.40
2016,11,21,06,09,8.40
2016,11,21,06,10,8.40
2016,11,21,06,11,8.40
2016,11,21,06,12,8.40
2016,11,21,06,13,8.40
2016,11,21,06,14,8.40
2016,11,21,06,15,8.40
2016,11,21,06,16,8.40
2016,11,21,06,17,8.40
2016,11,21,06,18,8.40
2016,11,21,06,19,8.40
2016,11,21,06,20,8.40
2016,11,21,06,21,8.40
2016,11,21,06,22,8.40
2016,11,21,06,23,8.40
2016,11,21,06,24,8.30
2016,11,21,06,25,8.30
2016,11,21,06,26,8.30
2016,11,21,06,27,8.30
2016,11,21,06,28,8.30
2016,11,21,06,29,8.30
2016,11,21,06,30,8.30
2016,11,21,06,31,8.30
2016,11,21,06,32,8.20
2016,11,21,06,33,8.20
2016,11,21,06,34,8.20
2016,11,21,06,35,8.20
2016,11,21,06,36,8.20
2016,11,21,06,37,8.20
2016,11,21,06,38,8.20
2016,11,21,06,39,8.20
2016,11,21,06,40,8.20
2016,11,21,06,41,8.20
2016,11,21,06,42,8.20
2016,11,21,06,43,8.10
2016,11,21,06,44,8.10
2016,11,21,06,45,8.10
2016,11,21,06,46,8.10
2016,11,21,06,47,8.00
2016,11,21,06,48,8.00
2016,11,21,06,49,8.00
2016,11,21,06,50,7.90
2016,11,21,06,51,7.90
2016,11,21,06,52,7.90
2016,11,21,06,53,7.80
2016,11,21,06,54,7.80
2016,11,21,06,55,7.80
2016,11,21,06,56,7.80
2016,11,21,06,57,7.80
2016,11,21,06,58,7.80
2016,11,21,06,59,7.80
2016,11,21,07,00,7.70
2016,11,21,07,01,7.70
2016,11,21,07,02,7.70
2016,11,21,07,03,7.70
2016,11,21,07,04,7.70
2016,11,21,07,05,7.60
2016,11,21,07,06,7.60
2016,11,21,07,07,7.60
2016,11,21,07,08,7.60
2016,11,21,07,09,7.60
2016,11,21,07,10,7.60
2016,11,21,07,11,7.60
2016,11,21,07,12,7.60
2016,11,21,07,13,7.60
2016,11,21,07,14,7.60
2016,11,21,07,15,7.60
2016,11,21,07,16,7.60
2016,11,21,07,17,7.60
2016,11,21,07,18,7.70
2016,11,21,07,19,7.70
2016,11,21,07,20,7.60
2016,11,21,07,21,7.60
2016,11,21,07,22,7.50
2016,11,21,07,23,7.50
2016,11,21,07,24,7.40
2016,11,21,07,25,7.40
2016,11,21,07,26,7.30
2016,11,21,07,27,7.30
2016,11,21,07,28,7.30
2016,11,21,07,29,7.30
2016,11,21,07,30,7.30
2016,11,21,07,31,7.30
2016,11,21,07,32,7.40
2016,11,21,07,33,7.40
2016,11,21,07,34,7.40
2016,11,21,07,35,7.40
2016,11,21,07,36,7.40
2016,11,21,07,37,7.50
2016,11,21,07,38,7.50
2016,11,21,07,39,7.50
2016,11,21,07,40,7.60
2016,11,21,07,41,7.60
2016,11,21,07,42,7.70
2016,11,21,07,43,7.70
2016,11,21,07,44,7.70
2016,11,21,07,45,7.70
2016,11,21,07,46,7.70
2016,11,21,07,47,7.70
2016,11,21,07,48,7.70
2016,11,21,07,49,7.70
2016,11,21,07,50,7.70
2016,11,21,07,51,7.70
2016,11,21,07,52,7.70
2016,11,21,07,53,7.70
2016,11,21,07,54,7.70
2016,11,21,07,55,7.70
2016,11,21,07,56,7.70
2016,11,21,07,57,7.70
2016,11,21,07,58,7.70
2016,11,21,07,59,7.70
2016,11,21,08,00,7.60
2016,11,21,08,01,7.60
2016,11,21,08,02,7.60
2016,11,21,08,03,7.60
2016,11,21,08,04,7.60
2016,11,21,08,05,7.60
2016,11,21,08,06,7.70
2016,11,21,08,07,7.70
2016,11,21,08,08,7.60
2016,11,21,08,09,7.60
2016,11,21,08,10,7.60
2016,11,21,08,11,7.60
2016,11,21,08,12,7.60
2016,11,21,08,13,7.60
2016,11,21,08,14,7.60
2016,11,21,08,15,7.60
2016,11,21,08,16,7.60
2016,11,21,08,17,7.60
2016,11,21,08,18,7.60
2016,11,21,08,19,7.60
2016,11,21,08,20,7.60
2016,11,21,08,21,7.60
2016,11,21,08,22,7.60
2016,11,21,08,23,7.60
2016,11,21,08,24,7.60
2016,11,21,08,25,7.60
2016,11,21,08,26,7.60
2016,11,21,08,27,7.60
2016,11,21,08,28,7.60
2016,11,21,08,29,7.70
2016,11,21,08,30,7.70
2016,11,21,08,31,7.70
2016,11,21,08,32,7.70
2016,11,21,08,33,7.70
2016,11,21,08,34,7.70
2016,11,21,08,35,7.70
2016,11,21,08,36,7.70
2016,11,21,08,37,7.70
2016,11,21,08,38,7.70
2016,11,21,08,39,7.70
2016,11,21,08,40,7.70
2016,11,21,08,41,7.70
2016,11,21,08,42,7.70
2016,11,21,08,43,7.70
2016,11,21,08,44,7.70
2016,11,21,08,45,7.70
2016,11,21,08,46,7.70
2016,11,21,08,47,7.70
2016,11,21,08,48,7.70
2016,11,21,08,49,7.70
2016,11,21,08,50,7.70
2016,11,21,08,51,7.70
2016,11,21,08,52,7.70
2016,11,21,08,53,7.70
2016,11,21,08,54,7.70
2016,11,21,08,55,7.70
2016,11,21,08,56,7.70
2016,11,21,08,57,7.80
2016,11,21,08,58,7.80
2016,11,21,08,59,7.80
2016,11,21,09,00,7.90
2016,11,21,09,01,8.00
2016,11,21,09,02,8.00
2016,11,21,09,03,8.10
2016,11,21,09,04,8.10
2016,11,21,09,05,8.10
2016,11,21,09,06,8.20
2016,11,21,09,07,8.20
2016,11,21,09,08,8.20
2016,11,21,09,09,8.30
2016,11,21,09,10,8.30
2016,11,21,09,11,8.30
2016,11,21,09,12,8.40
2016,11,21,09,13,8.40
2016,11,21,09,14,8.40
2016,11,21,09,15,8.40
2016,11,21,09,16,8.50
2016,11,21,09,17,8.50
2016,11,21,09,18,8.50
2016,11,21,09,19,8.50
2016,11,21,09,20,8.60
2016,11,21,09,21,8.60
2016,11,21,09,22,8.60
2016,11,21,09,23,8.60
2016,11,21,09,24,8.60
2016,11,21,09,25,8.60
2016,11,21,09,26,8.60
2016,11,21,09,27,8.50
2016,11,21,09,28,8.50
2016,11,21,09,29,8.40
2016,11,21,09,30,8.40
2016,11,21,09,31,8.40
2016,11,21,09,32,8.40
2016,11,21,09,33,8.40
2016,11,21,09,34,8.40
2016,11,21,09,35,8.40
2016,11,21,09,36,8.40
2016,11,21,09,37,8.50
2016,11,21,09,38,8.50
2016,11,21,09,39,8.60
2016,11,21,09,40,8.60
2016,11,21,09,41,8.60
2016,11,21,09,42,8.60
2016,11,21,09,43,8.70
2016,11,21,09,44,8.70
2016,11,21,09,45,8.70
2016,11,21,09,46,8.80
2016,11,21,09,47,8.90
2016,11,21,09,48,8.90
2016,11,21,09,49,9.00
2016,11,21,09,50,9.10
2016,11,21,09,51,9.10
2016,11,21,09,52,9.20
2016,11,21,09,53,9.20
2016,11,21,09,54,9.30
2016,11,21,09,55,9.30
2016,11,21,09,56,9.30
2016,11,21,09,57,9.30
2016,11,21,09,58,9.30
2016,11,21,09,59,9.30
2016,11,21,10,00,9.30
2016,11,21,10,01,9.30
2016,11,21,10,02,9.30
2016,11,21,10,03,9.20
2016,11,21,10,04,9.20
2016,11,21,10,05,9.20
2016,11,21,10,06,9.20
2016,11,21,10,07,9.20
2016,11,21,10,08,9.20
2016,11,21,10,09,9.20
2016,11,21,10,10,9.20
2016,11,21,10,11,9.20
2016,11,21,10,12,9.20
2016,11,21,10,13,9.30
2016,11,21,10,14,9.30
2016,11,21,10,15,9.30
2016,11,21,10,16,9.30
2016,11,21,10,17,9.30
2016,11,21,10,18,9.40
2016,11,21,10,19,9.40
2016,11,21,10,20,9.40
2016,11,21,10,21,9.50
2016,11,21,10,22,9.50
2016,11,21,10,23,9.50
2016,11,21,10,24,9.60
2016,11,21,10,25,9.60
2016,11,21,10,26,9.70
2016,11,21,10,27,9.70
2016,11,21,10,28,9.80
2016,11,21,10,29,9.80
2016,11,21,10,30,9.80
2016,11,21,10,31,9.80
2016,11,21,10,32,9.90
2016,11,21,10,33,9.90
2016,11,21,10,34,9.90
2016,11,21,10,35,9.90
2016,11,21,10,36,9.90
2016,11,21,10,37,9.90
2016,11,21,10,38,9.90
2016,11,21,10,39,9.90
2016,11,21,10,40,9.90
2016,11,21,10,41,9.80
2016,11,21,10,42,9.80
2016,11,21,10,43,9.80
2016,11,21,10,44,9.80
2016,11,21,10,45,9.80
2016,11,21,10,46,9.80
2016,11,21,10,47,9.80
2016,11,21,10,48,9.90
2016,11,21,10,49,9.90
2016,11,21,10,50,9.90
2016,11,21,10,51,9.90
2016,11,21,10,52,9.90
2016,11,21,10,53,9.90
2016,11,21,10,54,9.90
2016,11,21,10,55,9.90
2016,11,21,10,56,9.90
2016,11,21,10,57,10.00
2016,11,21,10,58,10.00
2016,11,21,10,59,10.10
2016,11,21,11,00,10.00
2016,11,21,11,01,10.00
2016,11,21,11,02,10.00
2016,11,21,11,03,10.00
2016,11,21,11,04,10.00
2016,11,21,11,05,10.10
2016,11,21,11,06,10.10
2016,11,21,11,07,10.10
2016,11,21,11,08,10.00
2016,11,21,11,09,10.00
2016,11,21,11,10,10.00
2016,11,21,11,11,10.10
2016,11,21,11,12,10.10
2016,11,21,11,13,10.10
2016,11,21,11,14,10.10
2016,11,21,11,15,10.10
2016,11,21,11,16,10.10
2016,11,21,11,17,10.20
2016,11,21,11,18,10.20
2016,11,21,11,19,10.30
2016,11,21,11,20,10.30
2016,11,21,11,21,10.40
2016,11,21,11,22,10.40
2016,11,21,11,23,10.40
2016,11,21,11,24,10.40
2016,11,21,11,25,10.40
2016,11,21,11,26,10.30
2016,11,21,11,27,10.30
2016,11,21,11,28,10.10
2016,11,21,11,29,10.10
2016,11,21,11,30,10.00
2016,11,21,11,31,10.00
2016,11,21,11,32,10.00
2016,11,21,11,33,10.00
2016,11,21,11,34,10.00
2016,11,21,11,35,10.00
2016,11,21,11,36,10.10
2016,11,21,11,37,10.10
2016,11,21,11,38,10.10
2016,11,21,11,39,10.00
2016,11,21,11,40,10.00
2016,11,21,11,41,10.10
2016,11,21,11,42,10.10
2016,11,21,11,43,10.10
2016,11,21,11,44,10.20
2016,11,21,11,45,10.20
2016,11,21,11,46,10.20
2016,11,21,11,47,10.20
2016,11,21,11,48,10.20
2016,11,21,11,49,10.20
2016,11,21,11,50,10.20
2016,11,21,11,51,10.20
2016,11,21,11,52,10.20
2016,11,21,11,53,10.20
2016,11,21,11,54,10.20
2016,11,21,11,55,10.20
2016,11,21,11,56,10.20
2016,11,21,11,57,10.20
2016,11,21,11,58,10.30
2016,11,21,11,59,10.30
2016,11,21,12,00,10.30
2016,11,21,12,01,10.30
2016,11,21,12,02,10.30
2016,11,21,12,03,10.30
2016,11,21,12,04,10.40
2016,11,21,12,05,10.40
2016,11,21,12,06,10.40
2016,11,21,12,07,10.40
2016,11,21,12,08,10.50
2016,11,21,12,09,10.50
2016,11,21,12,10,10.50
2016,11,21,12,11,10.50
2016,11,21,12,12,10.50
2016,11,21,12,13,10.60
2016,11,21,12,14,10.60
2016,11,21,12,15,10.70
2016,11,21,12,16,10.70
2016,11,21,12,17,10.70
2016,11,21,12,18,10.70
2016,11,21,12,19,10.60
2016,11,21,12,20,10.60
2016,11,21,12,21,10.50
2016,11,21,12,22,10.40
2016,11,21,12,23,10.40
2016,11,21,12,24,10.50
2016,11,21,12,25,10.50
2016,11,21,12,26,10.60
2016,11,21,12,27,10.60
2016,11,21,12,28,10.70
2016,11,21,12,29,10.70
2016,11,21,12,30,10.70
2016,11,21,12,31,10.70
2016,11,21,12,32,10.70
2016,11,21,12,33,10.70
2016,11,21,12,34,10.70
2016,11,21,12,35,10.70
2016,11,21,12,36,10.70
2016,11,21,12,37,10.60
2016,11,21,12,38,10.60
2016,11,21,12,39,10.40
2016,11,21,12,40,10.40
2016,11,21,12,41,10.30
2016,11,21,12,42,10.30
2016,11,21,12,43,10.30
2016,11,21,12,44,10.30
2016,11,21,12,45,10.20
2016,11,21,12,46,10.20
2016,11,21,12,47,10.20
2016,11,21,12,48,10.30
2016,11,21,12,49,10.40
2016,11,21,12,50,10.40
2016,11,21,12,51,10.40
2016,11,21,12,52,10.50
2016,11,21,12,53,10.40
2016,11,21,12,54,10.40
2016,11,21,12,55,10.40
2016,11,21,12,56,10.40
2016,11,21,12,57,10.30
2016,11,21,12,58,10.30
2016,11,21,12,59,10.20
2016,11,21,13,00,10.20
2016,11,21,13,01,10.10
2016,11,21,13,02,10.20
2016,11,21,13,03,10.20
2016,11,21,13,04,10.20
2016,11,21,13,05,10.30
2016,11,21,13,06,10.30
2016,11,21,13,07,10.30
2016,11,21,13,08,10.30
2016,11,21,13,09,10.30
2016,11,21,13,10,10.30
2016,11,21,13,11,10.40
2016,11,21,13,12,10.40
2016,11,21,13,13,10.40
2016,11,21,13,14,10.40
2016,11,21,13,15,10.40
2016,11,21,13,16,10.50
2016,11,21,13,17,10.50
2016,11,21,13,18,10.50
2016,11,21,13,19,10.50
2016,11,21,13,20,10.50
2016,11,21,13,21,10.50
2016,11,21,13,22,10.50
2016,11,21,13,23,10.60
2016,11,21,13,24,10.60
2016,11,21,13,25,10.60
2016,11,21,13,26,10.60
2016,11,21,13,27,10.60
2016,11,21,13,28,10.60
2016,11,21,13,29,10.60
2016,11,21,13,30,10.60
2016,11,21,13,31,10.50
2016,11,21,13,32,10.50
2016,11,21,13,33,10.50
2016,11,21,13,34,10.50
2016,11,21,13,35,10.50
2016,11,21,13,36,10.50
2016,11,21,13,37,10.50
2016,11,21,13,38,10.50
2016,11,21,13,39,10.50
2016,11,21,13,40,10.50
2016,11,21,13,41,10.50
2016,11,21,13,42,10.50
2016,11,21,13,43,10.50
2016,11,21,13,44,10.50
2016,11,21,13,45,10.60
2016,11,21,13,46,10.50
2016,11,21,13,47,10.50
2016,11,21,13,48,10.50
2016,11,21,13,49,10.50
2016,11,21,13,50,10.50
2016,11,21,13,51,10.50
2016,11,21,13,52,10.40
2016,11,21,13,53,10.40
2016,11,21,13,54,10.30
2016,11,21,13,55,10.30
2016,11,21,13,56,10.30
2016,11,21,13,57,10.30
2016,11,21,13,58,10.40
2016,11,21,13,59,10.40
2016,11,21,14,00,10.40
2016,11,21,14,01,10.40
2016,11,21,14,02,10.40
2016,11,21,14,03,10.40
2016,11,21,14,04,10.40
2016,11,21,14,05,10.40
2016,11,21,14,06,10.40
2016,11,21,14,07,10.40
2016,11,21,14,08,10.40
2016,11,21,14,09,10.30
2016,11,21,14,10,10.30
2016,11,21,14,11,10.20
2016,11,21,14,12,10.20
2016,11,21,14,13,10.20
2016,11,21,14,14,10.20
2016,11,21,14,15,10.20
2016,11,21,14,16,10.10
2016,11,21,14,17,10.00
2016,11,21,14,18,10.00
2016,11,21,14,19,10.00
2016,11,21,14,20,10.00
2016,11,21,14,21,10.00
2016,11,21,14,22,10.10
2016,11,21,14,23,10.10
2016,11,21,14,24,10.10
2016,11,21,14,25,10.10
2016,11,21,14,26,10.20
2016,11,21,14,27,10.20
2016,11,21,14,28,10.20
2016,11,21,14,29,10.30
2016,11,21,14,30,10.20
2016,11,21,14,31,10.20
2016,11,21,14,32,10.20
2016,11,21,14,33,10.20
2016,11,21,14,34,10.20
2016,11,21,14,35,10.20
2016,11,21,14,36,10.10
2016,11,21,14,37,10.10
2016,11,21,14,38,10.10
2016,11,21,14,39,10.20
2016,11,21,14,40,10.20
2016,11,21,14,41,10.20
2016,11,21,14,42,10.20
2016,11,21,14,43,10.20
2016,11,21,14,44,10.20
2016,11,21,14,45,10.20
2016,11,21,14,46,10.20
2016,11,21,14,47,10.20
2016,11,21,14,48,10.10
2016,11,21,14,49,10.10
2016,11,21,14,50,10.10
2016,11,21,14,51,10.10
2016,11,21,14,52,10.00
2016,11,21,14,53,10.00
2016,11,21,14,54,10.00
2016,11,21,14,55,9.90
2016,11,21,14,56,9.90
2016,11,21,14,57,9.90
2016,11,21,14,58,9.90
2016,11,21,14,59,9.90
2016,11,21,15,00,9.80
2016,11,21,15,01,9.80
2016,11,21,15,02,9.80
2016,11,21,15,03,9.80
2016,11,21,15,04,9.80
2016,11,21,15,05,9.80
2016,11,21,15,06,9.80
2016,11,21,15,07,9.70
2016,11,21,15,08,9.70
2016,11,21,15,09,9.70
2016,11,21,15,10,9.70
2016,11,21,15,11,9.70
2016,11,21,15,12,9.60
2016,11,21,15,13,9.60
2016,11,21,15,14,9.60
2016,11,21,15,15,9.60
2016,11,21,15,16,9.60
2016,11,21,15,17,9.50
2016,11,21,15,18,9.50
2016,11,21,15,19,9.50
2016,11,21,15,20,9.50
2016,11,21,15,21,9.50
2016,11,21,15,22,9.50
2016,11,21,15,23,9.40
2016,11,21,15,24,9.40
2016,11,21,15,25,9.40
2016,11,21,15,26,9.40
2016,11,21,15,27,9.30
2016,11,21,15,28,9.30
2016,11,21,15,29,9.30
2016,11,21,15,30,9.30
2016,11,21,15,31,9.20
2016,11,21,15,32,9.20
2016,11,21,15,33,9.20
2016,11,21,15,34,9.20
2016,11,21,15,35,9.20
2016,11,21,15,36,9.20
2016,11,21,15,37,9.20
2016,11,21,15,38,9.10
2016,11,21,15,39,9.10
2016,11,21,15,40,9.20
2016,11,21,15,41,9.20
2016,11,21,15,42,9.10
2016,11,21,15,43,9.10
2016,11,21,15,44,9.10
2016,11,21,15,45,9.10
2016,11,21,15,46,9.10
2016,11,21,15,47,9.10
2016,11,21,15,48,9.10
2016,11,21,15,49,9.00
2016,11,21,15,50,9.00
2016,11,21,15,51,9.00
2016,11,21,15,52,9.00
2016,11,21,15,53,9.00
2016,11,21,15,54,8.90
2016,11,21,15,55,8.90
2016,11,21,15,56,8.90
2016,11,21,15,57,8.90
2016,11,21,15,58,8.90
2016,11,21,15,59,8.90
2016,11,21,16,00,8.90
2016,11,21,16,01,8.80
2016,11,21,16,02,8.80
2016,11,21,16,03,8.80
2016,11,21,16,04,8.80
2016,11,21,16,05,8.80
2016,11,21,16,06,8.80
2016,11,21,16,07,8.80
2016,11,21,16,08,8.70
2016,11,21,16,09,8.70
2016,11,21,16,10,8.70
2016,11,21,16,11,8.70
2016,11,21,16,12,8.70
2016,11,21,16,13,8.70
2016,11,21,16,14,8.70
2016,11,21,16,15,8.70
2016,11,21,16,16,8.70
2016,11,21,16,17,8.70
2016,11,21,16,18,8.60
2016,11,21,16,19,8.60
2016,11,21,16,20,8.60
2016,11,21,16,21,8.60
2016,11,21,16,22,8.60
2016,11,21,16,23,8.50
2016,11,21,16,24,8.50
2016,11,21,16,25,8.40
2016,11,21,16,26,8.40
2016,11,21,16,27,8.40
2016,11,21,16,28,8.30
2016,11,21,16,29,8.30
2016,11,21,16,30,8.30
2016,11,21,16,31,8.30
2016,11,21,16,32,8.30
2016,11,21,16,33,8.30
2016,11,21,16,34,8.30
2016,11,21,16,35,8.30
2016,11,21,16,36,8.20
2016,11,21,16,37,8.20
2016,11,21,16,38,8.20
2016,11,21,16,39,8.20
2016,11,21,16,40,8.20
2016,11,21,16,41,8.20
2016,11,21,16,42,8.20
2016,11,21,16,43,8.10
2016,11,21,16,44,8.10
2016,11,21,16,45,8.00
2016,11,21,16,46,8.00
2016,11,21,16,47,7.90
2016,11,21,16,48,7.80
2016,11,21,16,49,7.80
2016,11,21,16,50,7.80
2016,11,21,16,51,7.70
2016,11,21,16,52,7.70
2016,11,21,16,53,7.70
2016,11,21,16,54,7.60
2016,11,21,16,55,7.60
2016,11,21,16,56,7.60
2016,11,21,16,57,7.60
2016,11,21,16,58,7.60
2016,11,21,16,59,7.60
2016,11,21,17,00,7.60
2016,11,21,17,01,7.60
2016,11,21,17,02,7.50
2016,11,21,17,03,7.50
2016,11,21,17,04,7.50
2016,11,21,17,05,7.50
2016,11,21,17,06,7.40
2016,11,21,17,07,7.40
2016,11,21,17,08,7.40
2016,11,21,17,09,7.40
2016,11,21,17,10,7.40
2016,11,21,17,11,7.40
2016,11,21,17,12,7.40
2016,11,21,17,13,7.40
2016,11,21,17,14,7.40
2016,11,21,17,15,7.30
2016,11,21,17,16,7.30
2016,11,21,17,17,7.30
2016,11,21,17,18,7.30
2016,11,21,17,19,7.20
2016,11,21,17,20,7.20
2016,11,21,17,21,7.10
2016,11,21,17,22,7.10
2016,11,21,17,23,7.10
2016,11,21,17,24,7.00
2016,11,21,17,25,7.00
2016,11,21,17,26,6.90
2016,11,21,17,27,6.90
2016,11,21,17,28,6.90
2016,11,21,17,29,6.80
2016,11,21,17,30,6.80
2016,11,21,17,31,6.70
2016,11,21,17,32,6.70
2016,11,21,17,33,6.70
2016,11,21,17,34,6.70
2016,11,21,17,35,6.60
2016,11,21,17,36,6.60
2016,11,21,17,37,6.60
2016,11,21,17,38,6.50
2016,11,21,17,39,6.50
2016,11,21,17,40,6.50
2016,11,21,17,41,6.40
2016,11,21,17,42,6.40
2016,11,21,17,43,6.40
2016,11,21,17,44,6.40
2016,11,21,17,45,6.40
2016,11,21,17,46,6.40
2016,11,21,17,47,6.40
2016,11,21,17,48,6.40
2016,11,21,17,49,6.40
2016,11,21,17,50,6.40
2016,11,21,17,51,6.40
2016,11,21,17,52,6.40
2016,11,21,17,53,6.40
2016,11,21,17,54,6.40
2016,11,21,17,55,6.40